This is the latest recevied weather packets stored in our database for station/object K5NWZ. If no packets are shown the sender has not sent any weather packets the latest 10 day(s).
| Time | Temp. | Humidity | Pressure | Rain* | Wind** | Luminosity | Snow |
|---|---|---|---|---|---|---|---|
| 1777757553 | 21.67° C | 15% | 1026.3 hPa | 0 mm | - | 582 W/m² | - |
| 1777757252 | 21.67° C | 14% | 1026.6 hPa | 0 mm | - | 597 W/m² | - |
| 1777756950 | 21.11° C | 15% | 1026.7 hPa | 0 mm | - | 608 W/m² | - |
| 1777756645 | 21.11° C | 14% | 1026.8 hPa | 0 mm | - | 620 W/m² | - |
| 1777756343 | 21.11° C | 14% | 1026.7 hPa | 0 mm | - | 633 W/m² | - |
| 1777756039 | 21.67° C | 15% | 1027 hPa | 0 mm | - | 645 W/m² | - |
| 1777755737 | 21.67° C | 14% | 1026.9 hPa | 0 mm | - | 657 W/m² | - |
| 1777755429 | 21.11° C | 15% | 1027.2 hPa | 0 mm | - | 667 W/m² | - |
| 1777755125 | 21.11° C | 14% | 1027.2 hPa | 0 mm | - | 678 W/m² | - |
| 1777754821 | 20.56° C | 15% | 1027.2 hPa | 0 mm | - | 689 W/m² | - |
| 1777754514 | 20.56° C | 15% | 1027.4 hPa | 0 mm | - | 699 W/m² | - |
| 1777754210 | 21.11° C | 15% | 1027.4 hPa | 0 mm | - | 708 W/m² | - |
| 1777753908 | 20.56° C | 14% | 1027.4 hPa | 0 mm | - | 718 W/m² | - |
| 1777753602 | 20.56° C | 15% | 1027.4 hPa | 0 mm | - | 727 W/m² | - |
| 1777753301 | 20.56° C | 16% | 1027.6 hPa | 0 mm | - | 735 W/m² | - |
| 1777752997 | 21.11° C | 16% | 1027.4 hPa | 0 mm | - | 743 W/m² | - |
| 1777752694 | 20.56° C | 16% | 1027.7 hPa | 0 mm | - | 750 W/m² | - |
| 1777752389 | 20° C | 17% | 1027.7 hPa | 0 mm | - | 759 W/m² | - |
| 1777752087 | 20° C | 17% | 1027.6 hPa | 0 mm | - | 762 W/m² | - |
| 1777751785 | 20° C | 18% | 1027.7 hPa | 0 mm | - | 768 W/m² | - |
| 1777751480 | 20.56° C | 16% | 1027.9 hPa | 0 mm | - | 775 W/m² | - |
| 1777751178 | 20.56° C | 16% | 1028.1 hPa | 0 mm | - | 780 W/m² | - |
| 1777750874 | 19.44° C | 17% | 1028 hPa | 0 mm | - | 785 W/m² | - |
| 1777750571 | 20° C | 18% | 1028 hPa | 0 mm | - | 789 W/m² | - |
| 1777750268 | 19.44° C | 19% | 1027.9 hPa | 0 mm | - | 790 W/m² | - |
* Rain latest hour (hover to see other rain measurements)
** Current wind speed in m/s (hover to see current wind gust speed)